Simultaneous Nadir Overpasses (SNOs) Predictions

Prediction of SNOs between AURA and NPP Satellite Orbit:

Table of predicted SNOs for the next 14.0 days since TLE Epoch: 5/5/2012
Index Date (AURA) Time (AURA) AURA Lat,Lon Date (NPP) Time (NPP) NPP Lat,Lon Distance(km) Time Diff (sec)
1 05/08/2012 04:31:13 -79.88,-168.14 05/08/2012 04:31:04 -79.88,-168.16 0.46 9
2 05/08/2012 05:20:34 80.05, 0.89 05/08/2012 05:21:43 80.05, 0.82 1.48 69
3 05/10/2012 19:58:18 79.78, 139.35 05/10/2012 19:57:15 79.79, 139.44 1.97 63
4 05/10/2012 20:47:39 -80.01, -51.23 05/10/2012 20:47:53 -80.01, -51.11 2.44 14
5 05/13/2012 12:14:48 79.80,-104.65 05/13/2012 12:14:08 79.80,-104.73 1.46 40
6 05/13/2012 13:04:10 -79.99, 64.50 05/13/2012 13:04:47 -79.99, 64.45 0.88 37
7 05/16/2012 04:31:16 79.92, 12.17 05/16/2012 04:30:57 79.93, 12.27 1.92 19
8 05/16/2012 05:20:37 -80.11,-178.63 05/16/2012 05:21:35 -80.11,-178.49 2.73 58
9 05/18/2012 19:59:37 -76.75, -56.20 05/18/2012 19:58:23 -76.99, -57.41 40.42 74




NCC Satellite Simultaneous Nadir Overpasses (SNOs) Prediction Service
